Flag for Canada Weather past 2 weeks in Brandon, Manitoba, Canada

Now
16 °F

Partly cloudy.


Feels Like: 6 °F
Forecast: -16 / 9 °F
Wind: 7 mph from Northeast

Location: Brandon

Current Time: Jan 30, 2015 at 7:37:47 PM

Latest Report: Jan 30, 2015 at 7:00 PM


Visibility: 12 mi

Pressure: 30.32 "Hg

Humidity: 86%

Dew point: 12 °F

Location of BrandonLocation

Historic Weather in Brandon — Graph

°F

Brandon temperature yesterday

Maximum temperature yesterday: 19 °F (at 12:00 AM)
Minimum temperature yesterday: 5 °F (at 4:00 PM)
Average temperature yesterday: 10 °F

Past Weeks' High & Low Weather Summary

 TemperatureHumidityPressure
High37 °F (Jan 22, 5:00 PM)100% (Jan 17, 3:00 AM)30.64 "Hg (Jan 17, 3:00 AM)
Low-4 °F (Jan 21, 7:00 AM)69% (Jan 22, 12:00 PM)29.41 "Hg (Jan 17, 1:00 AM)
Average20 °F87%30.00 "Hg
* Reported Jan 15 6:00 PM — Jan 30 6:00 PM, Brandon, Weather by CustomWeather, © 2014

Note: Actual official high and low records may vary slightly from our data, if they occured in-between our weather recording intervals... More about our weather records

Advertising

Brandon weather history for previous 24 hours

 ConditionsComfort  
Time TempWeatherWind HumidityBarometerVisibility
6:00 PM
Jan 30
21 °FPassing clouds.10 mph80%30.29 "Hg12 mi
5:00 PM21 °FPartly sunny.15 mph80%30.27 "Hg12 mi
4:00 PM19 °FBroken clouds.15 mph86%30.24 "Hg12 mi
3:00 PM19 °FPartly sunny.15 mph79%30.23 "Hg12 mi
2:47 PM19 °FPartly sunny.14 mph86%30.23 "Hg12 mi
2:00 PM19 °FLight snow. Overcast.14 mph86%30.23 "Hg10 mi
1:00 PM18 °FOvercast.14 mph86%30.23 "Hg12 mi
12:00 PM14 °FScattered clouds.6 mph85%30.24 "Hg15 mi
11:00 AM12 °FScattered clouds.2 mph85%30.25 "Hg15 mi
10:00 AM9 °FPartly sunny.3 mph92%30.27 "Hg15 mi
9:00 AM9 °FBroken clouds.6 mph85%30.27 "Hg15 mi
8:00 AM10 °FPassing clouds.6 mph92%30.28 "Hg12 mi
7:00 AM14 °FOvercast.7 mph85%30.30 "Hg15 mi
6:00 AM12 °FLight snow. Overcast.6 mph85%30.32 "Hg15 mi
5:00 AM10 °FLight snow. Overcast.7 mph85%30.36 "Hg12 mi
4:00 AM9 °FLight snow. Overcast.6 mph92%30.42 "Hg8 mi
3:00 AM10 °FLight snow. Mostly cloudy.7 mph85%30.45 "Hg5 mi
2:00 AM9 °FLight snow. Mostly cloudy.5 mph92%30.47 "Hg3 mi
1:54 AM9 °FLight snow. Mostly cloudy.6 mph85%30.47 "Hg3 mi
1:00 AM9 °FLight snow. Mostly cloudy.5 mph85%30.50 "Hg10 mi
12:00 AM9 °FMostly cloudy.7 mph78%30.53 "Hg15 mi
11:00 PM
Jan 29
7 °FOvercast.7 mph85%30.55 "Hg15 mi
10:00 PM7 °FOvercast.8 mph85%30.57 "Hg15 mi
9:00 PM7 °FLight snow. Mostly cloudy.2 mph78%30.60 "Hg12 mi
8:00 PM5 °FLight snow. Overcast.2 mph78%30.62 "Hg12 mi
7:00 PM5 °FLight snow. Overcast.3 mph78%30.63 "Hg12 mi
Weather by CustomWeather, © 2014

See weather overviewHow to use our weather pages